TimeEET,TemperatureF,Dew PointF,Humidity,Sea Level PressureIn,VisibilityMPH,Wind Direction,Wind SpeedMPH,Gust SpeedMPH,PrecipitationIn,Events,Conditions,WindDirDegrees,DateUTC
12:20 AM,68.0,57.2,68,29.92,6.2,East,11.5,-,N/A,,Mostly Cloudy,100,2012-10-31 22:20:00
1:50 AM,68.0,53.6,60,29.92,6.2,East,11.5,-,N/A,,Mostly Cloudy,100,2012-10-31 23:50:00
2:00 AM,68,54,51,29.91,6,East,11.5,,,,Scattered Clouds,100,2012-11-01 00:00:00
2:20 AM,68.0,53.6,60,29.92,6.2,East,9.2,-,N/A,,Mostly Cloudy,100,2012-11-01 00:20:00
2:50 AM,68.0,53.6,60,29.89,6.2,ENE,6.9,-,N/A,,Mostly Cloudy,70,2012-11-01 00:50:00
4:50 AM,68.0,55.4,64,29.89,6.2,ENE,6.9,-,N/A,,Mostly Cloudy,70,2012-11-01 02:50:00
5:20 AM,68.0,55.4,64,29.89,6.2,ESE,6.9,-,N/A,,Mostly Cloudy,110,2012-11-01 03:20:00
5:50 AM,68.0,55.4,64,29.86,6.2,East,4.6,-,N/A,,Mostly Cloudy,90,2012-11-01 03:50:00
6:20 AM,68.0,55.4,64,29.86,6.2,Calm,Calm,-,N/A,,Mostly Cloudy,0,2012-11-01 04:20:00
6:50 AM,64.4,59.0,83,29.86,6.2,Calm,Calm,-,N/A,,Mostly Cloudy,0,2012-11-01 04:50:00
7:20 AM,64.4,59.0,83,29.86,6.2,Calm,Calm,-,N/A,,Mostly Cloudy,0,2012-11-01 05:20:00
7:50 AM,64.4,57.2,77,29.86,6.2,ESE,4.6,-,N/A,,Mostly Cloudy,120,2012-11-01 05:50:00
8:00 AM,65,57,67,29.87,6,ESE,4.6,,,,Scattered Clouds,120,2012-11-01 06:00:00
8:20 AM,66.2,53.6,64,29.86,6.2,SE,13.8,-,N/A,,Mostly Cloudy,140,2012-11-01 06:20:00
8:50 AM,71.6,55.4,57,29.86,6.2,South,13.8,25.3,N/A,,Mostly Cloudy,170,2012-11-01 06:50:00
9:20 AM,71.6,60.8,69,29.83,6.2,SSE,15.0,26.5,N/A,,Mostly Cloudy,150,2012-11-01 07:20:00
9:50 AM,73.4,59.0,61,29.83,6.2,South,23.0,34.5,N/A,,Mostly Cloudy,170,2012-11-01 07:50:00
10:20 AM,75.2,59.0,57,29.83,6.2,SSE,20.7,32.2,N/A,,Mostly Cloudy,150,2012-11-01 08:20:00
10:50 AM,75.2,60.8,61,29.83,6.2,SSE,18.4,32.2,N/A,,Mostly Cloudy,160,2012-11-01 08:50:00
11:20 AM,75.2,60.8,61,29.83,6.2,SSE,20.7,32.2,N/A,,Mostly Cloudy,160,2012-11-01 09:20:00
11:50 AM,77.0,60.8,57,29.83,6.2,SSE,16.1,27.6,N/A,,Mostly Cloudy,150,2012-11-01 09:50:00
12:20 PM,77.0,60.8,57,29.80,6.2,SSE,18.4,29.9,N/A,,Mostly Cloudy,160,2012-11-01 10:20:00
12:50 PM,77.0,60.8,57,29.77,6.2,SSE,23.0,36.8,N/A,,Mostly Cloudy,150,2012-11-01 10:50:00
1:20 PM,77.0,60.8,57,29.77,6.2,SSE,18.4,29.9,N/A,,Mostly Cloudy,150,2012-11-01 11:20:00
1:50 PM,77.0,60.8,57,29.74,6.2,SSE,20.7,34.5,N/A,,Mostly Cloudy,150,2012-11-01 11:50:00
2:00 PM,77,60,46,29.74,6,SSE,20.7,,,,Scattered Clouds,150,2012-11-01 12:00:00
2:20 PM,77.0,60.8,57,29.74,6.2,SSE,20.7,34.5,N/A,,Mostly Cloudy,150,2012-11-01 12:20:00
2:50 PM,78.8,59.0,51,29.74,6.2,South,17.3,28.8,N/A,,Mostly Cloudy,170,2012-11-01 12:50:00
3:20 PM,78.8,59.0,51,29.74,6.2,South,17.3,28.8,N/A,,Mostly Cloudy,170,2012-11-01 13:20:00
3:50 PM,77.0,59.0,54,29.74,6.2,SE,20.7,32.2,N/A,,Mostly Cloudy,140,2012-11-01 13:50:00
4:20 PM,77.0,62.6,61,29.74,6.2,SSE,11.5,23.0,N/A,Rain,Light Rain,150,2012-11-01 14:20:00
4:50 PM,77.0,59.0,54,29.74,6.2,SSE,16.1,27.6,N/A,,Mostly Cloudy,160,2012-11-01 14:50:00
5:20 PM,77.0,59.0,54,29.74,6.2,SSE,16.1,27.6,N/A,,Mostly Cloudy,160,2012-11-01 15:20:00
5:50 PM,77.0,59.0,54,29.74,6.2,South,15.0,-,N/A,,Mostly Cloudy,170,2012-11-01 15:50:00
6:20 PM,77.0,59.0,54,29.74,6.2,South,15.0,-,N/A,,Mostly Cloudy,170,2012-11-01 16:20:00
6:50 PM,77.0,59.0,54,29.77,6.2,SE,11.5,23.0,N/A,,Mostly Cloudy,140,2012-11-01 16:50:00
7:50 PM,77.0,59.0,54,29.77,6.2,SE,15.0,-,N/A,,Mostly Cloudy,140,2012-11-01 17:50:00
8:00 PM,77,58,42,29.77,6,SE,15.0,,,,Scattered Clouds,140,2012-11-01 18:00:00
8:20 PM,77.0,59.0,54,29.77,6.2,SE,15.0,-,N/A,,Mostly Cloudy,140,2012-11-01 18:20:00
8:50 PM,77.0,59.0,54,29.77,6.2,SSE,9.2,-,N/A,,Mostly Cloudy,160,2012-11-01 18:50:00
9:20 PM,77.0,59.0,54,29.77,5.0,SSE,9.2,-,N/A,,Mostly Cloudy,160,2012-11-01 19:20:00
10:20 PM,77.0,59.0,54,29.80,4.3,SE,4.6,-,N/A,,Mostly Cloudy,130,2012-11-01 20:20:00
10:50 PM,77.0,55.4,47,29.80,3.7,SSE,4.6,-,N/A,,Mostly Cloudy,160,2012-11-01 20:50:00
11:20 PM,77.0,55.4,47,29.80,3.7,SW,4.6,-,N/A,,Mostly Cloudy,230,2012-11-01 21:20:00
11:50 PM,77.0,55.4,47,29.80,5.0,ESE,4.6,-,N/A,,Mostly Cloudy,110,2012-11-01 21:50:00